Location: Gunung Kajang
(2.4167°N, 113.7167°E)
Time: 15:47:31
(UTC+00:00)

Cosmos 1484 Rocket - Pass Details

Date: 29 May 2022
Orbit: 503 x 553 km, 97.5° (Epoch: 06 July)

Event Time Altitude Azimuth Distance (km) Brightness Sun altitude
Rises 20:34:27 0° 358° (N) 2,699 6.6 -24.0°
Reaches altitude 10° 20:36:39 10° 351° (N) 1,814 5.6 -23.5°
Enters shadow 20:38:31 24° 333° (NNW) 1,154 4.4 -23.1°
